Regional Weather Roundup
Issued by NWS

Home | Current Version | Previous Version | Text Only | Print | Product List | Glossary Off
Versions: 1 2 3 4 5 6 7 8 9 10 11 12 13 14 15 16 17 18 19 20 21 22 23 24 25 26 27 28 29 30 31 32 33 34 35 36 37 38 39 40 41 42 43 44 45 46 47 48 49 50

000
ASUS43 KLOT 301758
RWRIL

ILLINOIS REGIONAL WEATHER ROUNDUP
NATIONAL WEATHER SERVICE CHICAGO/ROMEOVILLE IL
100 PM CDT SAT AUG 30 2014

NOTE: "FAIR" INDICATES FEW OR NO CLOUDS BELOW 12,000 FEET WITH NO
SIGNIFICANT WEATHER AND/OR OBSTRUCTIONS TO VISIBILITY.

* THESE STATIONS ARE NOT UNDER NWS QUALITY CONTROL. THEY ALSO MAY NOT
  REPORT WEATHER SUCH AS PRECIPITATION OR FOG.

ILZ001-002-007-009-015-016-024-301900-
NORTHWEST ILLINOIS

CITY           SKY/WX    TMP DP  RH WIND       PRES   REMARKS
MOLINE         PTSUNNY   77  67  71 W9        29.88R
6HR MIN TEMP:  69; 6HR MAX TEMP:  80;

$$

ILZ003-004-008-010-011-017-018-301900-
NORTH CENTRAL ILLINOIS

CITY           SKY/WX    TMP DP  RH WIND       PRES   REMARKS
ROCKFORD       NOT AVBL
$$

ILZ005-006-012>014-019>023-301900-
NORTHEAST ILLINOIS

CITY           SKY/WX    TMP DP  RH WIND       PRES   REMARKS
CHICAGO-OHARE  PTSUNNY   79  66  64 SW14G26   29.85S HX  81
6HR MIN TEMP:  71; 6HR MAX TEMP:  80; 6HR PCP:  0.26;

CHICAGO-MIDWAY PTSUNNY   83  69  62 SW22G33   29.85F HX  86
6HR MIN TEMP:  75; 6HR MAX TEMP:  84;

AURORA         PTSUNNY   80  67  64 SW20G25   29.87S HX  82
6HR MIN TEMP:  71; 6HR MAX TEMP:  81; 6HR PCP: TRACE;

LANSING*         N/A    N/A N/A N/A MISG        N/A
WAUKEGAN       PTSUNNY   78  65  63 SW23G29   29.82S HX  80
6HR MIN TEMP:  71; 6HR MAX TEMP:  81; 6HR PCP: TRACE;

DUPAGE AIRPORT MOSUNNY   81  68  64 SW20      29.86S HX  84
6HR MIN TEMP:  71; 6HR MAX TEMP:  81; 6HR PCP: TRACE;

WHEELING       PTSUNNY   82  67  60 SW17G25   29.85S HX  84
6HR MIN TEMP:  73; 6HR MAX TEMP:  82; 6HR PCP:  0.01;

NORTHERLY ISL    N/A     81  66  60 SW9         N/A  HX  83
$$

LMZ740>746-301900-
SOUTHERN LAKE MICHIGAN

STATION/POSITION SKY/WX   TEMP    WIND        PRES    VSBY  WAVE
                          AIR SEA DIR/SP/G                  HT/PER
                          (F)     (DEG/KT/KT) (MB)    (MI)  (FT/S)
SOUTHERN BUOY              72 69  190/ 16/ 19 1009.9F         3/ 4
WAUKEGAN HARBOR            76     220/ 17/ 25   N/A
HARRISON CRIB              77     210/ 24/ 30   N/A
BURNHAM HARBOR             80     190/ 17       N/A
CALUMET HARBOR             80     200/  8/ 15 1010.0F
MICHIGAN CITY              77     180/ 16/ 22   N/A
MICHIGAN CITY 6N           77 72  200/ 16/ 19   N/A           2/ 3
ST. JOSEPH                 74 71  220/ 12/ 16   N/A           2/ 4
$$

ILZ025>027-034>036-040-047-049-050-058-095>099-301900-
WEST-CENTRAL ILLINOIS

CITY           SKY/WX    TMP DP  RH WIND       PRES   REMARKS
$$

ILZ028>032-037-038-041>044-048-051>054-059>061-301900-
CENTRAL ILLINOIS

CITY           SKY/WX    TMP DP  RH WIND       PRES   REMARKS
PEORIA         NOT AVBL
SPRINGFIELD    PTSUNNY   82  73  74 S10       29.93S HX  87
6HR MIN TEMP:  73; 6HR MAX TEMP:  82; 6HR PCP: TRACE;

TAYLORVILLE    NOT AVBL
$$

ILZ033-039-045-046-055>057-062-063-301900-
EAST-CENTRAL ILLINOIS

CITY           SKY/WX    TMP DP  RH WIND       PRES   REMARKS
CHAMPAIGN      PTSUNNY   81  72  74 S16       29.95F HX  85
$$

ILZ079-100>102-301900-
SOUTHWEST ILLINOIS

CITY           SKY/WX    TMP DP  RH WIND       PRES   REMARKS
CAHOKIA*       CLOUDY    80  73  79 S12       29.96F HX  84
$$

ILZ064>066-069>071-074>076-080>082-084>086-088>090-092>094-301900-
SOUTH-CENTRAL ILLINOIS

CITY           SKY/WX    TMP DP  RH WIND       PRES   REMARKS
CARBONDALE     CLOUDY    79  73  82 S9        30.01R HX  82
6HR MIN TEMP:  70; 6HR MAX TEMP:  79; 6HR PCP:  0.46;

MARION         CLOUDY    77  72  83 S14       30.03R
$$

ILZ067-068-072-073-078-083-087-091-301900-
SOUTHEAST ILLINOIS

CITY           SKY/WX    TMP DP  RH WIND       PRES   REMARKS
$$

ABBREVIATIONS USED IN REMARKS
   TC - TEMPERATURE IN CELSIUS
  WCI - WIND CHILL INDEX
   HX - HEAT INDEX
  VSB - VISIBILITY
$$



USA.gov is the U.S. government's official web portal to all federal, state and local government web resources and services.